Wind_Speed
14 15 15 16 16 16 16 16 15 15 14 14 14 14 14 13 13 12 12 12 12 13 13 13 13 13 13 13 14 15 16 17 17 16 16 15 16 16 17 20 22 23
12 13 14 14 14 14 14 14 13 13 12 12 12 11 10 10 10 10 9 9 9 10 11 11 11 10 11 11 12 13 14 14 14 14 13 13 14 15 15 18 20 22
11 12 13 13 14 13 13 13 12 11 11 10 9 9 8 8 8 8 7 7 7 8 8 8 8 8 9 9 10 11 11 12 12 12 11 12 13 14 14 15 18 20
9 10 11 12 13 13 13 12 11 10 10 9 8 7 6 5 5 5 4 5 5 5 5 5 6 6 7 8 9 9 10 10 11 10 10 11 13 14 13 13 14 15
8 8 9 11 11 12 12 12 11 10 9 9 8 6 5 4 3 2 2 2 3 2 2 2 3 4 5 6 6 7 8 9 11 10 10 11 12 13 13 12 11 12
9 9 9 9 10 11 11 11 11 11 10 10 9 7 6 5 3 2 2 1 1 1 1 1 2 3 3 4 5 6 8 10 11 11 10 11 12 13 12 11 10 11
10 10 9 9 9 10 11 11 12 12 11 11 10 9 8 6 5 4 4 4 3 3 3 3 3 2 2 3 6 8 9 10 11 11 11 11 11 11 11 10 11 12
10 10 10 10 10 10 10 11 12 12 12 12 11 10 9 8 7 7 6 5 5 4 4 3 3 2 1 4 8 9 10 10 11 11 11 10 10 10 10 10 10 11
13 12 11 10 10 11 11 11 11 11 11 11 11 10 9 8 8 7 6 5 4 4 3 3 2 1 2 4 7 8 8 8 9 10 9 9 9 9 9 10 9 9
16 15 14 13 12 12 11 11 11 10 10 9 8 8 7 7 7 6 5 5 5 5 5 4 3 3 3 4 5 4 4 4 6 7 6 6 7 7 8 9 9 8
18 18 17 16 15 14 13 12 11 10 10 9 7 7 7 7 6 5 5 6 6 6 5 4 3 3 4 4 4 2 0 0 1 2 2 2 2 4 7 8 7 6
21 20 19 18 18 17 16 15 14 12 11 11 10 10 9 8 8 8 8 8 7 7 7 6 5 5 6 6 5 3 2 3 2 2 3 3 3 3 4 4 3 3
23 22 21 21 20 20 19 18 17 15 14 14 14 13 12 11 10 11 9 9 9 9 8 8 7 8 9 8 8 7 6 6 6 5 7 8 7 6 7 7 7 6
26 24 23 22 22 22 22 20 19 18 18 18 17 15 14 13 13 13 12 11 11 11 11 10 9 9 10 11 11 12 11 11 11 10 10 12 12 11 10 10 9 8
28 27 26 25 25 25 24 22 21 20 20 20 19 18 17 17 16 16 15 15 15 15 15 13 12 11 12 13 14 14 14 14 15 14 14 14 15 15 15 14 14 14
30 29 29 28 28 28 27 25 24 23 23 22 21 21 21 20 19 18 18 18 18 19 18 18 16 15 16 16 16 16 17 17 17 17 17 16 17 18 18 19 19 19
32 31 30 29 29 29 29 28 27 26 26 24 24 23 23 23 22 21 20 20 20 21 21 20 20 19 18 18 19 19 19 20 20 20 19 19 18 19 21 22 23 21
34 33 31 30 30 30 30 30 29 29 28 27 27 26 26 26 25 24 24 24 24 24 24 23 23 22 21 21 20 21 21 21 22 22 21 21 21 21 23 25 25 25
34 34 33 32 32 32 31 31 31 30 30 29 29 29 29 29 28 28 27 27 28 28 28 28 27 26 25 24 23 23 22 23 23 23 23 23 24 25 26 27 28 30
36 36 35 35 36 36 35 35 35 34 33 31 30 31 32 31 31 30 30 30 31 32 33 33 32 31 29 28 27 27 26 25 25 25 26 26 27 28 29 29 31 32
42 42 41 39 40 41 39 39 39 38 36 35 35 35 34 33 31 32 32 33 33 34 36 37 36 35 34 32 31 30 30 29 28 28 28 30 31 32 32 33 33 34
45 45 44 42 43 43 42 41 42 40 36 35 37 38 37 35 34 36 37 36 34 34 35 36 37 37 37 36 34 33 32 32 31 32 32 34 36 36 36 37 38 37
47 44 44 45 44 44 43 43 44 43 40 39 39 38 39 39 38 38 37 36 35 36 36 36 37 38 38 37 36 35 34 33 33 35 37 39 39 40 40 41 42 41
49 47 46 47 47 45 45 45 46 47 45 44 43 42 43 45 44 42 41 40 39 39 39 38 39 39 38 39 38 37 34 34 34 36 40 42 42 43 44 44 43 43
49 47 46 47 49 49 48 47 48 50 48 45 45 46 47 49 48 47 47 48 47 44 42 41 40 40 40 41 40 38 34 32 32 34 39 43 44 44 45 44 42 41
47 45 45 46 49 52 54 54 52 53 54 50 49 49 49 49 50 49 49 51 51 48 45 43 42 43 44 44 43 41 37 34 33 35 39 42 44 44 43 42 41 42
Wind_Direction
118 124 127 128 130 132 135 135 133 129 124 121 121 117 112 107 104 103 99 94 90 86 84 81 78 73 67 62 60 59 57 53 51 53 57 65 74 81 82 82 84 85
124 128 132 136 137 137 138 140 140 137 132 127 125 123 119 113 106 102 98 90 84 79 76 74 72 69 66 60 54 51 53 53 52 55 61 69 79 86 85 80 82 86
132 134 137 141 144 145 145 145 146 146 143 139 135 129 124 118 111 105 98 90 81 74 70 69 68 65 59 52 44 40 45 54 59 64 72 79 85 92 93 84 82 87
141 143 145 146 148 150 151 153 155 156 156 156 154 148 138 129 118 110 98 87 81 73 66 66 66 59 48 42 36 29 36 54 67 75 85 92 94 97 101 96 93 96
154 153 153 154 155 156 157 160 163 166 170 171 172 172 168 161 149 125 100 85 80 75 71 68 60 48 42 39 38 38 45 60 72 80 89 97 102 104 107 108 109 112
166 165 163 162 163 164 166 168 170 175 180 184 188 191 190 187 181 169 156 159 170 197 221 302 2 18 26 38 60 71 73 74 78 84 90 99 107 112 117 118 119 123
177 174 172 171 170 170 173 176 180 183 187 192 196 200 201 200 199 200 200 206 215 229 251 283 310 335 358 57 89 94 89 85 84 88 94 102 111 118 122 121 118 122
194 188 183 180 178 177 178 181 185 189 193 197 201 205 206 208 209 214 218 222 231 247 264 276 287 303 31 89 98 96 92 91 91 93 99 104 108 112 117 124 128 131
206 201 197 194 191 189 187 186 187 189 193 197 201 204 207 211 214 218 222 224 232 241 242 241 242 206 134 114 106 99 95 94 96 100 105 108 106 108 117 130 141 147
214 209 206 204 203 201 200 198 195 193 195 197 201 202 203 208 213 215 212 208 209 210 215 220 214 187 166 152 140 123 102 99 106 109 113 111 109 113 123 130 136 141
222 218 214 211 209 210 211 212 211 207 204 205 207 209 210 212 216 217 213 210 207 209 215 222 222 210 203 191 179 172 202 287 146 136 141 140 124 133 137 135 134 137
225 225 222 218 216 215 215 215 217 218 217 215 215 215 216 217 219 221 221 221 224 225 230 231 227 226 229 225 221 228 266 285 266 243 256 267 267 239 207 204 224 251
226 227 227 226 224 223 221 219 217 217 220 222 223 223 223 222 224 228 230 232 235 238 242 239 233 232 237 239 240 246 269 283 277 274 278 278 276 270 263 267 274 277
227 228 229 229 229 231 230 228 224 222 222 226 229 231 230 229 230 234 236 240 242 245 248 246 241 240 244 245 245 249 259 267 269 273 278 275 272 273 273 274 276 273
228 230 232 231 231 233 233 233 232 230 229 230 232 235 236 236 237 238 239 242 246 249 252 253 251 249 250 251 252 253 255 258 262 269 274 271 270 269 270 271 270 267
229 231 234 235 235 234 233 232 233 234 235 235 236 238 240 241 242 243 244 245 247 251 253 254 253 251 251 253 256 258 260 262 263 267 270 271 271 269 266 266 264 262
230 232 236 238 240 240 237 234 232 233 235 237 239 241 243 244 245 247 249 250 252 254 256 256 255 253 251 251 253 256 260 262 264 266 267 268 269 268 265 263 262 261
231 234 237 239 242 245 244 241 237 236 236 237 239 241 243 246 247 249 250 253 255 257 258 258 258 257 254 252 252 254 256 259 261 263 264 264 265 266 265 265 265 265
235 237 239 240 240 241 244 245 244 243 242 241 240 241 243 245 247 248 250 252 254 256 256 256 255 256 257 256 256 255 256 258 260 262 263 264 264 264 265 267 269 269
237 238 241 243 242 239 240 243 245 247 247 245 244 246 249 249 248 249 251 253 254 255 256 256 256 256 256 256 257 258 258 259 260 262 263 265 267 267 266 267 269 270
228 230 232 237 240 240 239 241 244 246 247 248 247 247 250 251 250 251 253 253 255 256 256 256 257 257 256 256 255 256 258 260 260 262 264 266 267 268 268 268 268 268
226 228 230 232 236 239 240 240 241 241 242 245 246 246 247 249 250 253 253 250 248 251 254 256 258 258 257 255 254 255 258 260 262 264 264 265 266 267 268 270 270 269
228 230 233 233 236 240 240 241 242 241 239 240 242 246 248 248 248 251 251 248 246 249 254 258 259 259 258 255 254 256 259 263 267 269 270 268 267 267 267 269 271 271
230 233 235 236 238 241 242 242 243 243 241 241 242 246 248 247 246 249 250 250 253 254 255 255 255 256 258 259 258 258 261 265 270 274 273 270 267 267 266 268 273 276
233 236 238 239 240 243 243 242 241 240 240 242 244 244 245 246 247 249 250 250 253 254 252 252 252 251 253 255 254 254 257 263 270 274 273 269 266 266 267 268 271 274
231 233 235 238 241 243 242 241 240 239 239 240 242 243 245 246 247 249 248 247 248 250 250 251 251 250 249 249 249 250 252 258 266 270 269 268 266 265 267 267 265 265
Height
10967 10967 10968 10969 10970 10971 10971 10972 10973 10974 10974 10975 10975 10976 10976 10977 10977 10978 10978 10978 10978 10978 10978 10978 10978 10978 10978 10978 10978 10978 10978 10977 10977 10976 10975 10975 10975 10975 10974 10973 10972 10972
10968 10968 10969 10969 10970 10971 10972 10973 10974 10974 10975 10976 10976 10977 10977 10978 10978 10979 10979 10979 10979 10980 10980 10979 10979 10979 10979 10979 10979 10979 10979 10979 10978 10978 10977 10977 10977 10977 10976 10976 10975 10974
10968 10968 10969 10970 10970 10971 10972 10973 10974 10974 10975 10976 10976 10977 10978 10978 10979 10979 10979 10980 10980 10980 10980 10980 10981 10981 10981 10980 10980 10980 10980 10979 10979 10978 10978 10978 10978 10978 10978 10978 10977 10977
10968 10968 10969 10969 10970 10971 10971 10972 10973 10974 10975 10976 10977 10978 10978 10979 10979 10980 10980 10980 10981 10981 10981 10981 10981 10982 10982 10982 10981 10981 10981 10980 10980 10979 10979 10978 10978 10978 10979 10979 10978 10978
10967 10967 10968 10968 10969 10970 10970 10971 10972 10973 10974 10975 10976 10977 10978 10979 10979 10980 10980 10981 10981 10981 10981 10981 10982 10982 10982 10982 10982 10981 10981 10981 10981 10981 10980 10980 10979 10979 10979 10979 10978 10978
10966 10966 10967 10967 10968 10968 10969 10970 10971 10972 10974 10975 10976 10977 10977 10978 10979 10979 10980 10981 10981 10981 10982 10981 10982 10982 10982 10982 10981 10981 10981 10981 10981 10981 10981 10981 10980 10980 10979 10979 10978 10978
10966 10966 10966 10967 10967 10967 10968 10969 10970 10971 10973 10974 10975 10976 10976 10977 10978 10978 10979 10980 10980 10981 10981 10982 10982 10982 10982 10982 10981 10981 10981 10981 10982 10982 10982 10981 10981 10980 10980 10980 10979 10979
10966 10966 10966 10966 10967 10967 10967 10968 10969 10970 10971 10972 10973 10974 10975 10976 10977 10977 10978 10979 10980 10980 10981 10981 10982 10982 10982 10982 10982 10981 10981 10981 10982 10982 10982 10982 10981 10981 10981 10981 10981 10980
10964 10965 10966 10966 10966 10966 10967 10967 10968 10969 10970 10970 10971 10972 10973 10974 10976 10976 10977 10978 10979 10979 10980 10980 10981 10981 10982 10982 10982 10982 10982 10982 10982 10982 10982 10982 10982 10982 10982 10981 10981 10981
10962 10963 10964 10965 10965 10966 10966 10967 10968 10968 10969 10969 10970 10971 10972 10974 10975 10976 10977 10977 10978 10978 10979 10979 10980 10980 10981 10981 10981 10982 10982 10982 10982 10982 10982 10982 10982 10981 10981 10981 10981 10981
10960 10961 10962 10963 10964 10964 10965 10966 10967 10968 10969 10969 10970 10971 10972 10973 10974 10975 10976 10976 10977 10977 10977 10978 10979 10980 10980 10980 10980 10981 10982 10982 10982 10982 10981 10981 10981 10981 10981 10981 10980 10980
10958 10959 10960 10961 10962 10963 10963 10964 10966 10967 10968 10969 10969 10969 10970 10971 10973 10973 10974 10975 10976 10976 10976 10977 10978 10979 10980 10980 10980 10980 10981 10981 10982 10982 10981 10981 10981 10980 10980 10980 10980 10979
10956 10957 10958 10959 10960 10961 10961 10962 10963 10965 10966 10967 10968 10968 10969 10970 10971 10972 10973 10974 10974 10975 10975 10976 10977 10978 10978 10979 10979 10979 10980 10980 10981 10981 10981 10980 10980 10980 10980 10979 10979 10978
10953 10955 10956 10957 10958 10959 10960 10961 10962 10963 10964 10965 10966 10967 10968 10968 10969 10970 10971 10972 10973 10973 10974 10975 10976 10976 10977 10977 10978 10978 10979 10979 10979 10979 10980 10980 10979 10979 10978 10978 10977 10977
10951 10952 10953 10954 10955 10956 10957 10959 10960 10961 10962 10963 10964 10965 10966 10967 10968 10968 10969 10970 10971 10971 10972 10973 10974 10975 10975 10976 10976 10976 10977 10977 10977 10978 10978 10978 10978 10977 10977 10976 10975 10974
10948 10950 10950 10951 10952 10953 10955 10956 10957 10959 10960 10961 10962 10964 10965 10966 10967 10967 10968 10968 10969 10969 10970 10971 10972 10973 10973 10973 10974 10974 10974 10975 10975 10976 10976 10976 10976 10975 10974 10973 10972 10971
10945 10946 10948 10949 10950 10950 10951 10953 10954 10955 10957 10959 10960 10961 10962 10964 10965 10966 10967 10967 10967 10968 10968 10968 10969 10970 10970 10971 10971 10971 10972 10972 10972 10973 10974 10974 10973 10972 10971 10969 10969 10969
10942 10943 10945 10947 10948 10948 10949 10950 10951 10952 10953 10955 10956 10958 10959 10961 10962 10964 10965 10966 10966 10966 10966 10966 10967 10967 10967 10967 10968 10968 10969 10969 10969 10970 10970 10971 10970 10969 10967 10966 10967 10967
10940 10941 10942 10944 10944 10946 10947 10948 10948 10948 10949 10950 10952 10953 10954 10956 10958 10960 10961 10962 10963 10963 10963 10964 10963 10964 10964 10964 10965 10965 10966 10966 10967 10967 10967 10967 10966 10965 10964 10964 10963 10963
10937 10938 10939 10941 10942 10943 10943 10944 10944 10944 10945 10947 10948 10949 10950 10951 10953 10955 10956 10957 10958 10959 10960 10960 10960 10961 10961 10961 10962 10962 10963 10963 10964 10964 10964 10963 10962 10961 10961 10960 10959 10958
10926 10928 10930 10934 10936 10937 10938 10939 10939 10940 10941 10943 10944 10945 10946 10947 10949 10950 10950 10951 10953 10954 10954 10955 10956 10957 10958 10958 10958 10958 10959 10959 10960 10961 10961 10959 10957 10956 10956 10956 10955 10955
10919 10921 10924 10926 10929 10931 10932 10933 10934 10936 10937 10939 10940 10942 10943 10944 10944 10944 10943 10944 10945 10946 10948 10950 10951 10952 10953 10953 10954 10954 10954 10955 10956 10957 10956 10954 10952 10952 10952 10951 10950 10952
10917 10919 10921 10921 10923 10925 10926 10927 10929 10931 10933 10933 10936 10938 10940 10940 10940 10939 10939 10939 10939 10940 10943 10945 10946 10947 10947 10948 10949 10949 10950 10951 10952 10952 10951 10949 10948 10948 10947 10945 10945 10947
10912 10914 10916 10917 10918 10919 10921 10922 10924 10926 10928 10929 10932 10935 10935 10934 10934 10935 10935 10935 10935 10936 10939 10940 10941 10942 10943 10943 10944 10944 10945 10946 10947 10947 10945 10943 10943 10942 10941 10940 10940 10940
10908 10910 10912 10914 10915 10916 10917 10917 10918 10920 10922 10924 10926 10928 10927 10927 10928 10929 10930 10930 10930 10931 10932 10933 10934 10935 10936 10937 10938 10939 10940 10942 10942 10941 10939 10936 10936 10936 10936 10937 10936 10934
10904 10906 10908 10910 10911 10910 10909 10909 10910 10913 10915 10917 10918 10919 10920 10920 10922 10923 10923 10923 10923 10924 10924 10925 10926 10927 10928 10930 10932 10933 10936 10938 10937 10935 10933 10930 10930 10930 10931 10932 10932 10929